This is the latest recevied weather packets stored in our database for station/object TA2NC-13. If no packets are shown the sender has not sent any weather packets the latest 10 day(s).
| Time | Temp. | Humidity | Pressure | Rain* | Wind** | Luminosity | Snow |
|---|---|---|---|---|---|---|---|
| 1778145000 | 16.67° C | 47% | 1021 hPa | 0 mm | - | - | - |
| 1778144401 | 16.11° C | 48% | 1021 hPa | 0 mm | - | - | - |
| 1778143801 | 16.67° C | 49% | 1021 hPa | 0 mm | - | - | - |
| 1778143201 | 16.11° C | 46% | 1021 hPa | 0 mm | - | - | - |
| 1778142600 | 16.11° C | 46% | 1021 hPa | 0 mm | - | - | - |
| 1778142000 | 16.11° C | 45% | 1021 hPa | 0 mm | - | - | - |
| 1778141400 | 16.67° C | 45% | 1021 hPa | 0 mm | - | - | - |
| 1778140801 | 16.67° C | 44% | 1021 hPa | 0 mm | - | - | - |
| 1778140201 | 17.22° C | 48% | 1021 hPa | 0 mm | - | - | - |
| 1778139601 | 17.22° C | 46% | 1021 hPa | 0 mm | - | - | - |
| 1778139000 | 17.22° C | 44% | 1021 hPa | 0 mm | - | - | - |
| 1778138401 | 17.22° C | 44% | 1021 hPa | 0 mm | - | - | - |
| 1778137801 | 17.22° C | 45% | 1021 hPa | 0 mm | - | - | - |
| 1778137201 | 17.22° C | 47% | 1021 hPa | 0 mm | - | - | - |
| 1778136601 | 16.11° C | 48% | 1021 hPa | 0 mm | - | - | - |
| 1778136000 | 15.56° C | 48% | 1021 hPa | 0 mm | - | - | - |
| 1778135401 | 16.11° C | 49% | 1020 hPa | 0 mm | - | - | - |
| 1778134800 | 14.44° C | 54% | 1020 hPa | 0 mm | - | - | - |
| 1778134200 | 13.89° C | 58% | 1020 hPa | 0 mm | - | - | - |
| 1778133600 | 12.78° C | 60% | 1020 hPa | 0 mm | - | - | - |
| 1778133001 | 12.78° C | 60% | 1020 hPa | 0 mm | - | - | - |
| 1778132401 | 11.67° C | 68% | 1020 hPa | 0 mm | - | - | - |
| 1778131800 | 10° C | 69% | 1020 hPa | 0 mm | - | - | - |
| 1778131200 | 8.89° C | 74% | 1020 hPa | 0 mm | - | - | - |
| 1778130600 | 8.33° C | 75% | 1020 hPa | 0 mm | - | - | - |
* Rain latest hour (hover to see other rain measurements)
** Current wind speed in m/s (hover to see current wind gust speed)